Weather History for KD39 - October, 2012

Change the Weather History Date:

Thursday, October 11, 2012

  Actual Average (KGHW) Record (KGHW)
Temperature  
Mean Temperature 33 °F -  
Max Temperature 42 °F 60 °F 79 °F (1955)
Min Temperature 24 °F 36 °F 20 °F (1985)
Degree Days  
Heating Degree Days 32    
Moisture  
Dew Point 25 °F    
Average Humidity 65    
Maximum Humidity 93    
Minimum Humidity 36    
Precipitation  
Precipitation 0.00 in - - ()
Sea Level Pressure  
Sea Level Pressure 30.14 in    
Wind  
Wind Speed 10 mph (NNW)    
Max Wind Speed 21 mph    
Max Gust Speed 28 mph    
Visibility 10 miles    
Events Rain    
Averages and records for this station are not official NWS values.
T = Trace of Precipitation, MM = Missing Value Source: NWS Daily Summary

Daily Weather History Graph

Daily Weather History Graph

Search for Another Location

Airport or City:

Trip Planner

Search our weather history database for the weather conditions in past years. The results will help you decide how hot, cold, wet, or windy it might be!

Date:

Astronomy

Oct. 11, 2012 Rise Set
Actual Time 7:31 AM CDT 6:40 PM CDT
Civil Twilight 7:01 AM CDT 7:10 PM CDT
Nautical Twilight 6:27 AM CDT 7:44 PM CDT
Astronomical Twilight 5:52 AM CDT 8:18 PM CDT
Moon 2:59 AM CDT (10/11) 4:27 PM CDT (10/11)
Length of Visible Light 12h 08m
Length of Day
11h 08m
Waning Crescent, 18% of the Moon is Illuminated
Oct 11
Waning Crescent
Oct 15
New
Oct 21
First Quarter
Oct 29
Full
Nov 6
Last Quarter

Hourly Weather History & Observations

Time (CDT) Temp. Windchill Dew Point Humidity Pressure Visibility Wind Dir Wind Speed Gust Speed Precip Events Conditions
12:15 AM 42.8 °F 37.5 °F 26.6 °F 53% 29.82 in 10.0 mi NE 9.2 mph - N/A   Overcast
12:35 AM 42.8 °F 38.0 °F 26.6 °F 53% 29.82 in 10.0 mi NE 8.1 mph - N/A   Overcast
12:55 AM 42.8 °F 38.6 °F 28.4 °F 57% 29.82 in 10.0 mi NNE 6.9 mph - N/A Rain Light Rain
1:55 AM 39.2 °F 32.5 °F 32.0 °F 75% 29.85 in 10.0 mi North 10.4 mph - N/A   Light Drizzle
2:15 AM 37.4 °F 30.8 °F 32.0 °F 81% 29.88 in 10.0 mi North 9.2 mph - N/A Rain Light Rain
2:35 AM 37.4 °F 29.8 °F 33.8 °F 87% 29.87 in 10.0 mi North 11.5 mph 18.4 mph N/A Rain Rain
2:55 AM 37.4 °F 30.8 °F 33.8 °F 87% 29.89 in 10.0 mi North 9.2 mph - N/A   Overcast
3:15 AM 35.6 °F 28.0 °F 33.8 °F 93% 29.90 in 10.0 mi North 10.4 mph 17.3 mph N/A   Overcast
3:55 AM 35.6 °F 29.2 °F 33.8 °F 93% 29.91 in 10.0 mi North 8.1 mph - N/A   Overcast
4:15 AM 35.6 °F 27.5 °F 33.8 °F 93% 29.94 in 10.0 mi North 11.5 mph - N/A   Overcast
4:35 AM 35.6 °F 28.6 °F 33.8 °F 93% 29.95 in 10.0 mi North 9.2 mph - N/A   Overcast
4:55 AM 35.6 °F 27.5 °F 33.8 °F 93% 29.97 in 10.0 mi NNW 11.5 mph 19.6 mph N/A   Overcast
5:15 AM 35.6 °F 27.5 °F 32.0 °F 87% 29.98 in 10.0 mi NNW 11.5 mph - N/A   Overcast
5:35 AM 35.6 °F 28.0 °F 32.0 °F 87% 29.99 in 10.0 mi NNW 10.4 mph 16.1 mph N/A   Overcast
6:15 AM 35.6 °F 27.5 °F 32.0 °F 87% 30.01 in 10.0 mi North 11.5 mph 16.1 mph N/A   Scattered Clouds
6:35 AM 35.6 °F 27.5 °F 32.0 °F 87% 30.03 in 10.0 mi NNW 11.5 mph - N/A   Mostly Cloudy
6:55 AM 35.6 °F 27.5 °F 32.0 °F 87% 30.04 in 10.0 mi NNW 11.5 mph - N/A   Scattered Clouds
7:15 AM 33.8 °F 25.8 °F 32.0 °F 93% 30.05 in 10.0 mi NNW 10.4 mph - N/A   Clear
7:35 AM 35.6 °F 27.5 °F 32.0 °F 87% 30.06 in 10.0 mi North 11.5 mph - N/A   Clear
7:55 AM 33.8 °F 26.4 °F 32.0 °F 93% 30.09 in 10.0 mi NNW 9.2 mph - N/A   Scattered Clouds
8:15 AM 33.8 °F 25.8 °F 32.0 °F 93% 30.10 in 10.0 mi NNW 10.4 mph - N/A   Mostly Cloudy
8:35 AM 35.6 °F 28.6 °F 32.0 °F 87% 30.12 in 10.0 mi NNW 9.2 mph - N/A   Scattered Clouds
8:55 AM 35.6 °F 27.1 °F 32.0 °F 87% 30.13 in 10.0 mi NNW 12.7 mph 17.3 mph N/A   Scattered Clouds
9:35 AM 35.6 °F 27.5 °F 28.4 °F 75% 30.16 in 10.0 mi North 11.5 mph 17.3 mph N/A   Clear
9:55 AM 37.4 °F 29.8 °F 26.6 °F 65% 30.16 in 10.0 mi North 11.5 mph 16.1 mph N/A   Clear
10:15 AM 37.4 °F 28.5 °F 24.8 °F 60% 30.18 in 10.0 mi NNW 15.0 mph - N/A   Clear
10:35 AM 37.4 °F 30.3 °F 24.8 °F 60% 30.19 in 10.0 mi North 10.4 mph - N/A   Clear
10:55 AM 39.2 °F 31.6 °F 23.0 °F 52% 30.19 in 10.0 mi NNW 12.7 mph 20.7 mph N/A   Clear
11:15 AM 39.2 °F 30.8 °F 23.0 °F 52% 30.19 in 10.0 mi NNW 15.0 mph 21.9 mph N/A   Clear
11:35 AM 39.2 °F 30.8 °F 21.2 °F 49% 30.21 in 10.0 mi North 15.0 mph 18.4 mph N/A   Clear
11:55 AM 41.0 °F 32.5 °F 21.2 °F 45% 30.20 in 10.0 mi NNW 17.3 mph - N/A   Clear
12:15 PM 41.0 °F 33.9 °F 21.2 °F 45% 30.21 in 10.0 mi NNW 12.7 mph 21.9 mph N/A   Clear
12:35 PM 41.0 °F 33.1 °F 21.2 °F 45% 30.21 in 10.0 mi North 15.0 mph 19.6 mph N/A   Clear
12:55 PM 42.8 °F 34.8 °F 19.4 °F 39% 30.22 in 10.0 mi NNW 17.3 mph 23.0 mph N/A   Clear
1:15 PM 41.0 °F 33.5 °F 19.4 °F 42% 30.21 in 10.0 mi NNW 13.8 mph - N/A   Clear
1:35 PM 42.8 °F 34.0 °F 17.6 °F 36% 30.22 in 10.0 mi NW 20.7 mph 27.6 mph N/A   Clear
1:55 PM 41.0 °F 33.1 °F 19.4 °F 42% 30.22 in 10.0 mi North 15.0 mph 23.0 mph N/A   Clear
2:15 PM 41.0 °F 32.8 °F 21.2 °F 45% 30.22 in 10.0 mi NNW 16.1 mph - N/A   Clear
2:55 PM 42.8 °F 35.4 °F 21.2 °F 42% 30.24 in 10.0 mi NNW 15.0 mph 21.9 mph N/A   Clear
3:35 PM 41.0 °F 33.9 °F 21.2 °F 45% 30.25 in 10.0 mi NNW 12.7 mph 19.6 mph N/A   Clear
3:55 PM 41.0 °F 33.9 °F 21.2 °F 45% 30.25 in 10.0 mi NW 12.7 mph 18.4 mph N/A   Clear
4:15 PM 42.8 °F 36.2 °F 21.2 °F 42% 30.25 in 10.0 mi NW 12.7 mph 18.4 mph N/A   Clear
4:55 PM 42.8 °F 36.6 °F 21.2 °F 42% 30.26 in 10.0 mi NW 11.5 mph 16.1 mph N/A   Clear
5:15 PM 42.8 °F 36.6 °F 19.4 °F 39% 30.26 in 10.0 mi WNW 11.5 mph 19.6 mph N/A   Clear
5:35 PM 42.8 °F 36.2 °F 19.4 °F 39% 30.27 in 10.0 mi NW 12.7 mph 20.7 mph N/A   Clear
5:55 PM 41.0 °F 34.7 °F 19.4 °F 42% 30.28 in 10.0 mi NNW 10.4 mph 17.3 mph N/A   Clear
6:35 PM 39.2 °F 32.5 °F 21.2 °F 49% 30.29 in 10.0 mi NW 10.4 mph - N/A   Clear
6:55 PM 35.6 °F 29.9 °F 21.2 °F 56% 30.29 in 10.0 mi NW 6.9 mph - N/A   Clear
7:15 PM 33.8 °F 28.6 °F 19.4 °F 56% 30.31 in 10.0 mi NW 5.8 mph - N/A   Clear
7:55 PM 32.0 °F 26.4 °F 19.4 °F 60% 30.32 in 10.0 mi NW 5.8 mph - N/A   Clear
8:15 PM 32.0 °F 27.5 °F 19.4 °F 60% 30.32 in 10.0 mi NW 4.6 mph - N/A   Clear
9:15 PM 30.2 °F - 19.4 °F 64% 30.35 in 10.0 mi Calm Calm - N/A   Clear
9:55 PM 28.4 °F - 19.4 °F 69% 30.36 in 10.0 mi Calm Calm - N/A   Clear
10:15 PM 28.4 °F - 19.4 °F 69% 30.37 in 10.0 mi Calm Calm - N/A   Clear
10:55 PM 26.6 °F - 17.6 °F 69% 30.38 in 10.0 mi Calm Calm - N/A   Clear
11:15 PM 24.8 °F - 17.6 °F 74% 30.39 in 10.0 mi Calm Calm - N/A   Clear
11:55 PM 24.8 °F - 17.6 °F 74% 30.40 in 10.0 mi Calm Calm - N/A   Clear